User: anonymous   Login
Location: SAPM � Hemmingford
(45.0500°N, 73.5833°W)
Time: 19:21:26
(UTC-04:00)
Language:

Cosmos 1674 Rocket - Orbit

View from above orbital plane
View from above orbital plane
View from above satellite
View from above satellite

Ground track
Ground track

The orbit data is extracted from the following two-line orbital elements,

1 15945U 85069B   18109.61952773 +.00000081 +00000-0 +68067-5 0  9992
2 15945 082.5304 206.0308 0019507 355.5092 004.5945 14.83967158745395
Epoch (UTC): 19 April 2018 14:52:07
Eccentricity: 0.0019507
inclination: 82.5304°
perigee height: 603 km
apogee height: 630 km
right ascension of ascending node: 206.0308°
argument of perigee: 355.5092°
revolutions per day: 14.83967158
mean anomaly at epoch: 4.5945°
orbit number at epoch: 74539

The dashed part of the orbit path shows where the satellite is in the earth's shadow,  

DLR